Location: Moscow
(55.7500°N, 37.5830°E)
Time: 21:00:03
(UTC+03:00)

A-11 Canister half - Visible Passes

Search period start: 30 November 2021 00:00
Search period end: 10 December 2021 00:00
Orbit: 1524 x 1684 km, 47.3° (Epoch: 29 November)

Date Brightness Start Highest point End Pass type
(mag) Time Alt. Az. Time Alt. Az. Time Alt. Az.
30 Nov 11.0 01:48:41 14° ESE 01:48:41 14° ESE 01:50:40 10° E visible
30 Nov 9.7 03:46:59 40° SSE 03:47:25 40° SSE 03:56:22 10° E visible
30 Nov 9.5 05:45:18 25° WSW 05:51:19 53° S 06:00:41 10° ESE visible
30 Nov 9.9 07:46:05 10° W 07:55:15 43° SSW 08:04:07 10° SE visible
01 Dec 11.2 01:28:20 11° E 01:28:20 11° E 01:28:50 10° E visible
01 Dec 9.9 03:26:38 39° SE 03:26:38 39° SE 03:34:42 10° E visible
01 Dec 9.5 05:24:57 32° SW 05:29:39 53° S 05:39:03 10° ESE visible
01 Dec 9.8 07:24:23 10° W 07:33:37 44° SSW 07:42:34 10° SE visible
02 Dec 10.0 03:06:15 35° SE 03:06:15 35° SE 03:13:01 10° E visible
02 Dec 9.4 05:04:33 39° SW 05:08:00 53° S 05:17:25 10° ESE visible
02 Dec 9.8 07:02:51 11° W 07:11:59 45° SSW 07:21:00 10° SE visible
03 Dec 10.3 02:45:51 30° ESE 02:45:51 30° ESE 02:51:21 10° E visible
03 Dec 9.4 04:44:08 46° SSW 04:46:21 53° S 04:55:47 10° ESE visible
03 Dec 9.7 06:42:26 15° W 06:50:21 46° SSW 06:59:25 10° SE visible
04 Dec 10.5 02:25:25 25° ESE 02:25:25 25° ESE 02:29:40 10° E visible
04 Dec 9.3 04:23:43 51° SSW 04:24:41 53° S 04:34:09 10° ESE visible
04 Dec 9.6 06:22:01 20° W 06:28:43 47° SSW 06:37:51 10° SE visible
05 Dec 10.7 02:04:59 20° E 02:04:59 20° E 02:08:00 10° E visible
05 Dec 9.4 04:03:17 52° SSE 04:03:17 52° SSE 04:12:31 10° E visible
05 Dec 9.6 06:01:34 26° WSW 06:07:04 48° SSW 06:16:16 10° SE visible
06 Dec 10.9 01:44:32 16° E 01:44:32 16° E 01:46:19 10° E visible
06 Dec 9.5 03:42:50 49° SE 03:42:50 49° SE 03:50:52 10° E visible
06 Dec 9.5 05:41:08 32° WSW 05:45:25 48° SSW 05:54:40 10° SE visible
06 Dec 10.2 07:40:54 10° W 07:48:48 28° SW 07:56:31 10° SSE visible
07 Dec 11.2 01:24:06 12° E 01:24:06 12° E 01:24:37 10° E visible
07 Dec 9.8 03:22:23 43° SE 03:22:23 43° SE 03:29:13 10° E visible
07 Dec 9.5 05:20:41 39° WSW 05:23:47 49° SSW 05:33:05 10° SE visible
07 Dec 10.2 07:19:10 10° W 07:27:13 29° SW 07:35:05 10° SSE visible
08 Dec 10.1 03:01:57 36° ESE 03:01:57 36° ESE 03:07:34 10° E visible
08 Dec 9.4 05:00:15 45° SW 05:02:08 50° SSW 05:11:28 10° ESE visible
08 Dec 10.1 06:58:33 13° W 07:05:37 30° SW 07:13:37 10° SSE visible
09 Dec 10.3 02:41:32 29° ESE 02:41:32 29° ESE 02:45:55 10° E visible
09 Dec 9.3 04:39:50 50° SSW 04:40:29 50° SSW 04:49:52 10° ESE visible
09 Dec 10.0 06:38:08 18° W 06:44:02 31° SW 06:52:09 10° SSE visible
